x

Gulf Of Maine - 78 Nm East Of Portsmouth, Nh (44005) Wave Buoy

6:50 - Sun 28th Aug 2016 All times are EDT. -4 hours from GMT.

  • Sig Wave height 2.0ft
  • Swell Direction
  • Peak Period 14s
  • Average Period 4s
  • Wind
    16mph, 18mph gusts
  • Sea Temp 69°f
  • Aire Temp 69°f
  • Sea Pressure 1022mb
  • Gulf Of Maine - 78 Nm East Of Portsmouth, Nh
  • Gulf Of Maine - 78 Nm East Of Portsmouth, Nh

More Historic Weather Station data

Upgrade to MSW Pro to gain access to the past 30 days of data for over 8000 Wavebouys and Weather Stations around the globe.

Join Pro

Comparision Forecast

View Surf forecast
   
dom 08/28 6:50 2ft 14s 4s 16 18 mph 1022mb 69f 69f
5:50 1.6ft 9s 4s 13 16 mph 1022.6mb 69f 69f
4:50 1.6ft 9s 5s 11 13 mph 1023.3mb 70f 69f
3:50 1.6ft 8s 7s 9 11 mph 1024.3mb 69f 69f
2:50 1.6ft 7s 7s 9
mph
1024.6mb 70f 69f
1:50 1.3ft 9s 7s 7
mph
1025.3mb 69f 69f
12:50 1.3ft 9s 7s 4
mph
1025.7mb 69f 69f
11:50 1ft 8s 7s 4
mph
1026.2mb 69f 69f
10:50 1.3ft 8s 7s 7 9 mph 1026.3mb 69f 69f
9:50 1ft 9s 7s 7
mph
1026.1mb 69f 69f
8:50 1ft 8s 6s 9
mph
1026.1mb 69f 69f
7:50 1ft 9s 6s 9
mph
1026.2mb 69f 69f
6:50 1ft 8s 6s 9 11 mph 1025.8mb 69f 69f
5:50 1.3ft 9s 6s 7
mph
1025.6mb 69f 69f
3:50 1.3ft 8s 7s 7
mph
1024.7mb 69f 67f
2:50 1.6ft 9s 7s 7
mph
1025.1mb 69f 67f
1:50 1.3ft 10s 7s 7
mph
1025.3mb 69f 67f
12:50 1.3ft 8s 7s 7
mph
1025.4mb 69f 67f
sáb 08/27 10:50 1.3ft 9s 7s 2
mph
1024.6mb 70f 69f
9:50 1ft 9s 6s 2
mph
1024mb 70f 70f
8:50 1.3ft 9s 6s 2 4 mph 1023.5mb 70f 70f
7:50 1.3ft 10s 6s 4
mph
1022.8mb 71f 70f
6:50 1.3ft 8s 6s 2
mph
1022.4mb 71f 71f
5:50 1.3ft 9s 6s 4
mph
1022.1mb 71f 71f
4:50 1.3ft 8s 6s 4
mph
1022.2mb 72f 71f
3:50 1.3ft 10s 6s  -  2 mph 1022mb 71f 71f
2:50 1.3ft 8s 6s  -  mph 1022.1mb 70f 72f
1:50 1.3ft 8s 5s 7
mph
1022mb 69f 69f
12:50 1.3ft 8s 5s 9
mph
1021.8mb 69f 68f
11:50 1.3ft 8s 5s 7 9 mph 1021.9mb 69f 67f
10:50 1.3ft 8s 4s 9 11 mph 1021.8mb 68f 68f
9:50 1.3ft 8s 5s 11
mph
1021.6mb 68f 68f
8:50 1.3ft 8s 4s 7 9 mph 1020.9mb 68f 67f
7:50 1.3ft 5s 4s 11 13 mph 1020.2mb 68f 67f
6:50 1.3ft 8s 5s 13 16 mph 1019.2mb 68f 68f
5:50 1.6ft 9s 5s 11 13 mph 1018.6mb 68f 68f
4:50 1.6ft 8s 4s 13 16 mph 1018mb 68f 68f
3:50 1.6ft 6s 5s 13 16 mph 1017.7mb 68f 69f
2:50 2ft 5s 5s 11 13 mph 1017.4mb 69f 69f
1:50 2.5ft 5s 5s 13
mph
1017mb 69f 69f
12:50 2ft 5s 5s 11 13 mph 1016.6mb 69f 70f
vie 08/26 11:50 2ft 8s 4s 13
mph
1016.1mb 69f 70f
10:50 2ft 5s 5s 16 18 mph 1015.3mb 69f 73f
9:50 2ft 5s 5s 13 16 mph 1014.7mb 69f 72f
8:50 2ft 5s 5s 11
mph
1014.4mb 69f 71f
7:50 2ft 6s 4s 11 13 mph 1013.6mb 69f 71f
6:50 2.5ft 5s 4s 9 11 mph 1013.3mb 69f 71f
5:50 2.5ft 5s 4s 7 9 mph 1013.3mb 70f 71f
4:50 2.5ft 6s 5s 4
mph
1013.4mb 69f 70f
3:50 2.5ft 6s 5s 9
mph
1013.2mb 69f 71f
2:50 3ft 5s 5s 9 11 mph 1013mb 69f 70f
1:50 3ft 5s 5s 9 11 mph 1013mb 68f 70f
12:50 3ft 6s 5s 9 11 mph 1013.6mb 68f 70f
11:50 3ft 6s 5s 11 13 mph 1014.1mb 67f 70f
10:50 3.5ft 6s 5s 11
mph
1014mb 67f 70f
9:50 3.5ft 6s 5s 11 13 mph 1014.2mb 67f 70f
8:50 3.5ft 5s 5s 16 18 mph 1013.9mb 67f 70f
7:50 3.5ft 6s 4s 16 18 mph 1013.9mb 67f 70f
6:50 4ft 6s 5s 16 18 mph 1013.9mb 68f 70f
5:50 4ft 6s 4s 18 20 mph 1013.5mb 68f 70f
4:50 4.5ft 6s 5s 18 22 mph 1013.2mb 68f 71f
3:50 4.5ft 6s 5s 18 22 mph 1013.3mb 68f 71f
2:50 4.5ft 6s 5s 18 22 mph 1013.9mb 68f 71f
1:50 5ft 6s 5s 20 22 mph 1014mb 68f 71f
12:50 5ft 6s 5s 22 25 mph 1014.1mb 68f 71f
jue 08/25 11:50 5ft 6s 5s 18 22 mph 1014.8mb 68f 71f
10:50 5ft 6s 5s 20 22 mph 1015mb 68f 71f
9:50 5ft 6s 5s 20 25 mph 1014.8mb 68f 71f
8:50 5ft 6s 5s 20 22 mph 1015mb 68f 71f
7:50 4.5ft 6s 5s 20 22 mph 1014.6mb 68f 71f
6:50 5ft 6s 5s 20 22 mph 1014.7mb 69f 71f
5:50 4.5ft 6s 5s 20 22 mph 1014.7mb 68f 71f
4:50 4.5ft 5s 5s 20 25 mph 1015mb 68f 71f
3:50 4.5ft 6s 5s 18 22 mph 1015.3mb 68f 71f
2:50 4.5ft 5s 5s 18 22 mph 1016.2mb 68f 71f
1:50 4.5ft 5s 5s 20 25 mph 1016.8mb 68f 71f
12:50 4.5ft 5s 5s 22 25 mph 1017.2mb 68f 71f
11:50 4.5ft 6s 5s 22 25 mph 1017.5mb 68f 71f
10:50 4.5ft 5s 4s 20 25 mph 1018mb 68f 71f
9:50 4.5ft 5s 4s 22 25 mph 1018mb 68f 70f
8:50 4ft 5s 4s 20 25 mph 1018.1mb 68f 70f
7:50 4ft 5s 4s 20 22 mph 1018.3mb 68f 70f
6:50 3.5ft 5s 4s 18 20 mph 1018.5mb 68f 70f
5:50 3.5ft 5s 4s 18 20 mph 1018.5mb 68f 70f
4:50 3.5ft 5s 4s 16 20 mph 1018.4mb 68f 70f
3:50 3ft 4s 4s 16 20 mph 1018mb 68f 70f
2:50 3ft 4s 4s 16 18 mph 1018.8mb 69f 70f
1:50 2.5ft 5s 4s 16 18 mph 1019.3mb 69f 70f
12:50 2.5ft 4s 4s 16 18 mph 1019.6mb 69f 71f